Regional Weather Roundup
Issued by NWS Pendleton, OR

Home | Current Version | Previous Version | Text Only | Print | Product List | Glossary On
Versions: 1 2 3 4 5 6 7 8 9 10 11 12 13 14 15 16 17 18 19 20 21 22 23 24 25 26 27 28 29 30 31 32 33 34 35 36 37 38 39 40 41 42 43 44 45 46 47 48 49 50
000
ASUS46 KPDT 190325
RWRPDT
PENDLETON REGIONAL WEATHER ROUNDUP
NATIONAL WEATHER SERVICE PENDLETON OREGON
700 PM PST THU DEC 18 2014

NOTE: FAIR INDICATES FEW OR NO CLOUDS BELOW 12,000 FEET WITH NO
SIGNIFICANT WEATHER AND/OR OBSTRUCTIONS TO VISIBILITY.

# INDICATES UNOFFICIAL STATION AND DATA

WAZ520-190410-
EAST SLOPES OF WASHINGTON CASCADES

CITY            SKY/WX      TMP DP  RH  WIND    PRES   REMARKS
#BULLFROG 2SW   N/A         35  35  100 CALM    27.48F
#BUMPING DAM    N/A         32  N/A N/A W2      N/A
#CLE ELUM HS    N/A         35  33  92  CALM    29.85F
#CLE ELUM 2NW   N/A         33  33  100 CALM    N/A
#CLE ELUM LAKE  N/A         32  31  96  W1      29.93F
#CLIFFDEL 2NW   N/A         32  31  96  CALM    N/A
#GLENWOOD       N/A         37  36  96  CALM    29.94F
#MANASTASH CYN  N/A         32  29  89  CALM    29.86S
#NELSON         N/A         33  32  96  CALM    29.96F
#NELSON 3SW     N/A         31  30  96  CALM    30.16S
#NILE           N/A         35  34  96  CALM    29.21S
#RONALD 2NW     N/A         33  32  96  E2      29.75F
#SNOWDEN        N/A         35  34  96  CALM    N/A
#TEANAWAY 4NE   N/A         34  34  100 CALM    N/A
#TROUT LAKE HS  N/A         39  39  100 CALM    N/A
#TROUT LAKE 1NE N/A         37  36  96  CALM    29.95F
$$

WAZ521-190410-
SIMCOE HIGHLANDS

CITY            SKY/WX      TMP DP  RH  WIND    PRES   REMARKS
#BICKLETON HS   N/A         37  32  82  CALM    34.25S
#CENTERVILLE 4W N/A         39  36  89  E2      29.64F
#CENTERVILLE 1SWN/A         35  33  92  CALM    29.92S
#GOLDENDALE     N/A         40  39  96  CALM    N/A
#GOLDENDALE 1NE N/A         39  37  92  CALM    N/A
#GOLDENDALE 1S  N/A         40  38  92  E2      29.87S
#GOLDENDALE 5WNWN/A         37  36  96  CALM    29.93S
#GOODNOE HILLS  N/A         36  33  89  NW3     N/A
#LYLE 6NE       N/A         35  35  100 CALM    29.92S
$$

WAZ026-190410-
KITTITAS VALLEY

CITY            SKY/WX      TMP DP  RH  WIND    PRES   REMARKS
ELLENSBURG AP   CLOUDY      38  35  89  SE5     29.91S FOG
#ELLENSBURG CWU N/A         36  35  96  CALM    29.92S
#ELLENSBURG 3NE N/A         35  34  96  S3      29.93R
#ELLENSBURG     N/A         39  39  100 CALM    N/A
#ELLENSBURG 1E  N/A         35  33  92  CALM    N/A
#KITTITAS 4N    N/A         36  33  89  CALM    29.95F
#KITTITAS 3S    N/A         35  34  96  CALM    29.96R
#THORP 6N       N/A         32  31  96  SE2     30.00S
$$

WAZ027-190410-
YAKIMA VALLEY

CITY            SKY/WX      TMP DP  RH  WIND    PRES   REMARKS
YAKIMA AIRPORT  CLOUDY      41  37  86  CALM    29.95R
YAKIMA-VAGABOND LGT RAIN    37  37  100 SW1     29.94S FOG
#DONALD 2NE     N/A         38  37  96  CALM    28.79F
#GRANDVIEW      N/A         37  35  92  CALM    29.99F
#MABTON         N/A         38  37  96  CALM    29.96R
#MOXEE 2E       N/A         37  32  82  SE2     29.91F
#NACHES 2SW     N/A         37  36  96  CALM    29.93S
#OUTLOOK DOT    N/A         N/A N/A N/A CALM    N/A
#SELAH 8E       N/A         35  35  100 SE6     N/A
#TERRACE HTS    N/A         37  36  96  CALM    29.94S
#WAPATO 4NE     N/A         38  37  96  CALM    28.79F
#WEST VALLEY    N/A         39  37  92  CALM    29.95S
#W YAKIMA       N/A         38  36  92  CALM    29.96F
#WHITE SWAN 5E  N/A         38  37  96  CALM    29.98S
#WILEY CITY 3W  N/A         36  31  82  CALM    29.94F
$$

WAZ028-190410-
LOWER COLUMBIA BASIN...WASHINGTON

CITY            SKY/WX      TMP DP  RH  WIND    PRES   REMARKS
PASCO           CLOUDY      38  38  100 NW6     29.97S HAZE
PROSSER AWOS    N/A         39  39  100 NE2     29.98F
RICHLAND AWOS   CLOUDY      39  37  92  NW5     29.97F FOG
#BASIN CITY 5SW N/A         38  37  96  W6      29.96S
#BENTON CITY    N/A         38  37  96  SE3     29.88F
#CONNELL 5N     N/A         39  38  96  CALM    29.96F
#CONNELL 5NW    N/A         38  37  96  CALM    29.92F
#ELTOPIA        N/A         39  38  96  NW1     29.93
#ELTOPIA 6NW    N/A         37  36  96  W2      28.91S
#KAHLOTUS       N/A         40  39  96  S9      29.96F
#KENNEWICK      N/A         35  35  100 CALM    27.48F
#KENNEWICK 3S   N/A         38  37  96  CALM    29.98F
#PASCO-BROADMOORN/A         39  37  92  NW1     29.89S
#PATERSON       N/A         38  37  96  NW2     29.95F
#PROSSER        N/A         37  35  92  CALM    29.97F
#SAGEMOOR 2W    N/A         38  36  92  CALM    29.82F
#TOUCHET 2S     N/A         38  36  92  CALM    29.96F
#WEST PASCO     N/A         39  36  89  CALM    29.98S
$$

WAZ029-190410-
FOOTHILLS OF THE BLUES...WASHINGTON

CITY            SKY/WX      TMP DP  RH  WIND    PRES   REMARKS
WALLA WALLA AP  CLOUDY      40  39  96  CALM    29.93F FOG
#COLLEGE PLACE  N/A         42  32  67  CALM    29.97S
#DAYTON SCHOOL  N/A         40  34  79  CALM    29.94F
#LOWDEN 2SE     N/A         38  37  96  CALM    29.92F
#PLEASANT VIEW 1N/A         40  40  100 CALM    30.03S
#PRESCOTT       N/A         40  39  96  CALM    29.96S
#SUDBURY        N/A         41  N/A N/A CALM    N/A
#WHITMAN COLLEGEN/A         39  39  100 SW1     30.01F
#WAITSBURG 5S   N/A         44  39  82  CALM    30.05F
#WALLA WALLA 5E N/A         41  40  96  NW2     N/A
#WHITMAN MISSIONN/A         39  38  96  CALM    29.98S
$$

WAZ030-190410-
BLUE MOUNTAINS...WASHINGTON

CITY            SKY/WX      TMP DP  RH  WIND    PRES   REMARKS
#DIXIE 5SE      N/A         44  31  60  S15     29.84F WCI 37
#SKI BLUEWOOD   N/A         35  31  85  SW6     30.01F
$$

ORZ009-041-WAZ024-190410-
COLUMBIA RIVER GORGE

CITY            SKY/WX      TMP DP  RH  WIND    PRES   REMARKS
HOOD RIVER AP   LGT DRIZZLE 39  39  100 CALM    29.93F
THE DALLES AP   CLOUDY      41  38  89  CALM    29.95S
#ARLINGTON AIRPON/A         37  36  96  CALM    30.02S
#ARLINGTON HS   N/A         38  36  92  CALM    29.88F
#CELILO DOT     N/A         42  36  79  CALM    N/A
#LYLE           N/A         41  39  93  CALM    29.96F
#MARYHILL 2W    N/A         39  39  100 CALM    N/A
#MOSIER 1S      N/A         38  37  96  CALM    29.94S
#MURDOCK        N/A         41  40  96  CALM    29.97S
#RUFUS DOT      N/A         41  37  86  CALM    N/A

$$

ORZ510-190410-
NORTH CENTRAL OREGON

CITY            SKY/WX      TMP DP  RH  WIND    PRES   REMARKS
#CHENOWITH 1W   N/A         35  35  100 E3      N/A
#COW CYN RST AREN/A         45  34  65  S5      N/A
#DUFUR 9E       N/A         35  35  100 CALM    30.00F
#GRASS VALLEY   N/A         35  35  100 N1      N/A
#GRASS VALLEY 1SN/A         35  34  96  CALM    29.98S
#KENT DOT       N/A         40  30  67  SE7     N/A
#MAUPIN SCHOOL  N/A         40  37  89  CALM    29.92S
#MORO SCHOOL    N/A         36  36  100 CALM    29.91S
#SHANIKO 4NW    N/A         42  33  70  S17     29.86S WCI 34
#TYGH VALLEY 2NEN/A         39  37  92  CALM    29.93F
#WAPANITIA AIRPON/A         38  37  96  CALM    29.97S
#WASCO DOT      N/A         38  35  89  E3      N/A
#WASCO 5NE      N/A         35  34  96  CALM    29.96S
$$

ORZ511-190410-
CENTRAL OREGON

CITY            SKY/WX      TMP DP  RH  WIND    PRES   REMARKS
BEND AIRPORT    CLOUDY      39  32  76  CALM    29.90F
MADRAS AIRPORT  CLOUDY      46  36  68  S12     29.89R WCI 40
PRINEVILLE AP   CLOUDY      43  34  70  SE7     29.90F
REDMOND AIRPORT MOCLDY      42  34  73  S9      29.89F
#BEND 1SW       N/A         38  34  85  W2      N/A
#BEND-AWBREY    N/A         41  35  79  SW9     29.92F
#BEND-KIM LN    N/A         40  34  79  S1      29.86F
#CROOKED RVR RANN/A         46  36  68  SW1     29.92S
#CULVER         N/A         47  35  63  SE8     29.82F
#LAKE BILLY CHINN/A         45  24  43  CALM    29.96F
#POWELL BUTTE 3EN/A         44  34  68  SE6     N/A
#POWELL BUTTE   N/A         45  32  60  SW12    29.53F WCI 39
#PRINEVILLE 3N  N/A         45  36  70  E8      29.92F
#WARM SPRINGS   N/A         40  37  89  CALM    29.87S


ORZ509-190410-
EAST SLOPES OF OREGON CASCADES

CITY            SKY/WX      TMP DP  RH  WIND    PRES   REMARKS
#BLUE BOX PASS  N/A         36  -13 11  CALM    N/A
#BLACK BUTTE RNCN/A         36  35  96  CALM    29.95F
#CAMP SHERMAN   N/A         35  33  92  CALM    29.96S
#LA PINE DOT    N/A         40  27  59  SE3     N/A
#LA PINE 4NW    N/A         40  32  73  SE1     30.01F
#LAVA BUTTE DOT N/A         39  26  59  SW3     N/A
#MT BACHELOR-MIDN/A         29  27  92  NE25G41 N/A    WCI 15
#SISTERS AIRPOR N/A         36  36  100 CALM    30.17S
#SISTERS ODOT   N/A         36  N/A N/A CALM    N/A
#SISTERS 3N     N/A         35  32  89  CALM    29.90S
#SUNRIVER       N/A         39  34  82  S2      29.85F
#TUMALO 3W      N/A         43  35  73  SW12    29.82F WCI 37
#WANOGA BUTTE D N/A         31  31  100 W14G24  N/A    WCI 21

$$

ORZ044-190410-
LOWER COLUMBIA BASIN...OREGON

CITY            SKY/WX      TMP DP  RH  WIND    PRES   REMARKS
HERMISTON       CLOUDY      38  37  96  CALM    29.94F FOG
#BOARDMAN 3W    N/A         38  37  96  CALM    29.68S
#BOARDMAN 8SW   N/A         37  36  96  CALM    29.95F
#ECHO 8SW       N/A         37  34  89  W1      29.92F
#IONE SCHOOL    N/A         38  29  70  CALM    29.91F
#IRRIGON 4NW    N/A         38  38  100 S3      N/A
#UMATILLA SCHOOLN/A         35  35  100 W2      30.02S
#UMATILLA       N/A         39  35  85  W2      29.92F
$$

ORZ507-190410-
NORTHERN FOOTHILLS OF THE BLUES

CITY            SKY/WX      TMP DP  RH  WIND    PRES   REMARKS
PENDLETON AIRPT PTCLDY      43  37  79  E7      29.90F
#ADAMS 3WNW     N/A         45  39  79  SE1     29.95F
#ATHENA         N/A         45  39  79  CALM    29.97F
#CAYUSE         N/A         49  38  66  SE16G35 29.93F WCI 43
#HELIX SCHOOL   N/A         44  39  82  E7      29.95F
#HELIX 3N       N/A         44  39  82  E8      29.88F
#HOLDMAN 5SE    N/A         42  40  93  CALM    29.92S
#HOLDMAN 6E     N/A         43  39  86  CALM    29.76F
#M-F GROVE ELEM N/A         39  36  89  CALM    29.91F
#M-FREEWATER 5SEN/A         49  39  68  E13G26  29.92F WCI 44
#PENDLETON DNTN N/A         41  40  96  CALM    28.73S
#PDT AQUATIC CTRN/A         41  40  96  CALM    29.91S
#PENDLETON 5NE  N/A         46  40  79  CALM    29.88S
#PDT SUNRIDGE   N/A         39  38  96  CALM    29.92F
#PENDLETON 7NW  N/A         39  36  89  CALM    N/A
#PILOT ROCK     N/A         49  34  56  CALM    29.92F
#TUTUILLA       N/A         48  38  68  SE13    29.94F WCI 43
#UMAPINE 2E     N/A         39  38  96  CALM    29.91F
#WESTON SCHOOL  N/A         46  36  68  S5      29.89F

$$

ORZ508-190410-
SOUTHERN FOOTHILLS OF THE BLUES

CITY            SKY/WX      TMP DP  RH  WIND    PRES   REMARKS
LEXINGTON       FOG         37  37  100 CALM    29.91F VSB 1/2
#AJAX           N/A         36  31  82  NE2     29.83F
#CONDON SCHOOL  N/A         44  37  76  CALM    29.85F
#CONDON 5W      N/A         41  33  73  SE12    29.85F WCI 34
#FOSSIL SCHOOL  N/A         47  36  65  SE2     29.86F
#HEPPNER EOC    N/A         49  36  61  SE5     29.89S
#HEPPNER 4NE    N/A         46  35  65  SE6     29.94F
#LEXINGTON 2SE  N/A         38  36  92  CALM    29.86F
#MIKKALO        N/A         37  35  92  CALM    29.90F
#OLEX 4N        N/A         36  35  96  CALM    29.91F
#RUGGS 5NE      N/A         45  33  63  E6      30.04F
#RUGGS 2SW      N/A         46  36  68  S13G24  29.95F WCI 40

$$

ORZ502-503-190410-
BLUE MOUNTAINS

CITY            SKY/WX      TMP DP  RH  WIND    PRES   REMARKS
MEACHAM         CLOUDY      37  33  85  CALM    29.93F
#BATTLE MTN DOT N/A         37  34  89  S14     N/A    WCI 28
#HARDMAN 10S    N/A         36  33  89  S3      30.12S
#HEPPNER 15SE   N/A         39  34  82  CALM    29.80S
#LADD CYN SMT   N/A         37  30  75  SE15    N/A    WCI 28
#LADD CREEK ODOTN/A         40  20  44  S12     N/A    WCI 33
#LONG CREEK HS  N/A         42  36  79  S21G31  29.85F WCI 33
#N POWDER DOT   N/A         39  33  79  SE21    N/A    WCI 29
#PIKES PEAK     N/A         43  33  67  S20G28  27.99S WCI 34
#TOLLGATE       N/A         32  31  96  SE2     29.86F
#TROY SCHOOL    N/A         38  36  92  CALM    29.90S
#UKIAH          N/A         40  35  82  CALM    30.06R
#WESTON 4E      N/A         39  35  85  E13     29.90F WCI 31
$$

ORZ505-190410-
JOHN DAY BASIN

CITY            SKY/WX      TMP DP  RH  WIND    PRES   REMARKS
JOHN DAY        CLOUDY      45  32  60  SE7     29.98R
#JOHN DAY KJDY  N/A         43  43  100 N2      30.08R
#DAYVILLE SCHOOLN/A         32  29  89  CALM    30.16S
#MONUMENT HS    N/A         41  36  82  CALM    29.96S
#MT. VERNON 5SE N/A         40  33  76  S8      29.92S
#WINLOCK        N/A         44  34  68  CALM    30.01S
$$

ORZ506-190410-
OCHOCO AND JOHN DAY HIGHLANDS

CITY            SKY/WX      TMP DP  RH  WIND    PRES   REMARKS
#BUCK CREEK DOT N/A         41  38  89  S8      N/A
#HORSE RIDGE DO N/A         41  31  67  SE15G24 N/A    WCI 33
#KEYES SMT DOT  N/A         40  32  73  SE16G24 N/A    WCI 32
#PRAIRIE CITY   N/A         36  29  75  CALM    30.09R
#SENECA         N/A         35  N/A N/A SE2     N/A
#SENECA 9NW     N/A         34  32  92  CALM    30.05S
$$

ORZ049-190410-
GRANDE RONDE VALLEY

CITY            SKY/WX      TMP DP  RH  WIND    PRES   REMARKS
LA GRANDE       CLOUDY      43  28  55  S21G25  29.97S WCI 34
#COVE           N/A         45  39  79  SE2     30.03S
#COVE SCHOOL    N/A         45  34  65  SE6     29.93F
#COVE 6NW       N/A         42  34  73  S3      30.06R
#ELGIN 3N       N/A         42  31  65  SW8     29.71S
#ELGIN 1E       N/A         43  35  73  CALM    N/A
#IMBLER SCHOOL  N/A         40  34  79  S3      29.94S
#ISLAND CITY 4N N/A         50  47  89  CALM    29.78F
#LADD CYN DOT   N/A         42  32  67  S23G37  N/A    WCI 32
#UNION 1S       N/A         43  35  73  S6      29.94F
$$

ORZ050-190410-
WALLOWA COUNTY

CITY            SKY/WX      TMP DP  RH  WIND    PRES   REMARKS
JOSEPH AIRPORT  CLOUDY      32  32  100 SE3     29.97S
#ENTERPRISE AP  N/A         30  28  92  CALM    29.91R
#ENTERPRISE HS  N/A         32  31  96  CALM    29.98S
#IMNAHA SCHOOL  N/A         48  35  60  SW9     29.99S
#JOSEPH 3N      N/A         30  29  96  CALM    29.98S
#JOSEPH 3W      N/A         32  29  89  CALM    29.80S
#LOSTINE        N/A         32  31  96  CALM    29.88S
#MT HOWARD 8000 N/A         27  20  74  S2      29.90R
#PROMISE 1S     N/A         34  32  92  CALM    30.15F
#SHEEP RDG 7000 N/A         31  22  69  CALM    30.04F
#WALLOWA SCHOOL N/A         34  32  92  CALM    31.04S



$$



USA.gov is the U.S. government's official web portal to all federal, state and local government web resources and services.